Tracking 17149 objects as of 22-May-2015
HD Live streaming from Space Station

NSS 10 (AMC-12)

Track NSS 10 (AMC-12) now!
NSS 10 (AMC-12) is classified as:


NORAD ID: 28526
Int'l Code: 2005-003A
Perigee: 35,783.0 km
Apogee: 35,804.8 km
Inclination: 0.0 °
Period: 1,436.1 minutes
Semi major axis: 42164 km
RCS: 8.2875 m2 (large)
Launch date: February 3, 2005
Source: SOCIETE EUROPEENNE DES SATELLITES (SES)

72 C-band transponders.
Your satellite tracking list
Your tracking list is empty





NASA's NSSDC Master Catalog

Two Line Element Set (TLE):
1 28526U 05003A   15141.16121970 -.00000268  00000-0  10000-3 0  9991
2 28526 000.0238 354.7762 0002595 072.1310 192.1989 01.00271213 37755

Source of the keplerian elements: AFSPC

N2YO: 395